Weather Service Report


782 
ASCA44 KEWX 300020
RWRMX 

LATIN AMERICA AND CARIBBEAN REGIONAL WEATHER ROUNDUP
NATIONAL WEATHER SERVICE AUSTIN/SAN ANTONIO TX
700 PM CDT FRI APR 29 2016

NOTE: "FAIR" INDICATED FEW OR NO CLOUDS BELOW 12,000 FEET WITH NO
SIGNIFICANT WEATHER AND/OR OBSTRUCTIONS TO VISIBILITY.

BAJA CALIFORNIA
  
CITY           SKY/WX    TMP DP  RH WIND       PRES   REMARKS
LORETO         PTSUNNY   77  66  69 NE14      29.85S                  
LA PAZ         PTSUNNY   77  59  53 N14       29.87R                  
MEXICALI       SUNNY     88  28  11 NW5       29.76F                  
S.J. DEL CABO  PTSUNNY   81  55  41 NW12      29.85R                  
TIJUANA        MOSUNNY   63  48  59 SW10      29.99F                  

NORTHWESTERN MEXICO
  
CITY           SKY/WX    TMP DP  RH WIND       PRES   REMARKS
CULIACAN       CLOUDY    82  66  57 SW12      29.85S                  
DURANGO        CLOUDY    75  10   8 S14       30.00R                  
GUAYMAS        SUNNY     77  54  44 W20       29.78S                  
HERMOSILLO     SUNNY     86  30  13 S7        29.83F                  
CD. JUAREZ     SUNNY     73  27  17 NW14      29.77S                  
LOS MOCHIS     PTSUNNY   77  61  57 W9        29.83S                  
OBREGON        MOSUNNY   82  37  20 SW10      29.80R                  

NORTHEASTERN MEXICO
  
CITY           SKY/WX    TMP DP  RH WIND       PRES   REMARKS
CHIHUAHUA      MOSUNNY   79  21  11 NW14G25   29.81R                  
MATAMOROS      CLOUDY    82  77  83 SE9       29.60R HX  91           
MONCLOVA         N/A    N/A N/A N/A MISG        N/A                   
MONTERREY      CLOUDY    86  61  42 SE8       29.59S                  
NUEVO LAREDO   PTSUNNY   91  68  46 S8        29.55R HX  95           
PIEDRAS NEGRAS PTSUNNY   88  68  51 NE12      29.56  HX  91           
REYNOSA        CLOUDY    81  72  74 SE12      29.57S                  
SALTILLO       CLOUDY    79  50  36 S6        29.88S                  
TORREON        CLOUDY    90  10   5 SW3       29.74S                  
CD. VICTORIA   PTSUNNY   93  68  43 N3        29.56S HX  97           

WESTERN MEXICO
  
CITY           SKY/WX    TMP DP  RH WIND       PRES   REMARKS
AGUASCALIENTES PTSUNNY   81   3   5 SW17      30.03R                  
COLIMA         PTSUNNY   79  45  29 W12       29.95R                  
DEL BAJIO      CLOUDY    82   9   6 SW8       30.08R                  
GUADALAJARA    CLOUDY    84  10   6 SW7       29.98S                  
MANZANILLO     MOSUNNY   77  70  78 W23       29.78R                  
MAZATLAN       PTSUNNY   77  63  61 W8        29.83S                  
P. VALLARTA    PTSUNNY   77  66  69 SW12      29.82S                  
URUAPAN        CLOUDY    79  34  19 S8        30.04R                  
ZACATECAS      MOSUNNY   73  18  12 W23       30.08R                  

CENTRAL MEXICO
  
CITY           SKY/WX    TMP DP  RH WIND       PRES   REMARKS
CUERNAVACA       N/A    N/A N/A N/A MISG        N/A                   
MEXICO CITY    CLOUDY    79  34  19 S20       30.13R                  
MORELIA        CLOUDY    81  23  12 S12       30.04R                  
POZA RICA      PTSUNNY   86  75  70 CALM      29.56R HX  95           
PUEBLA         CLOUDY    77  34  20 S23       30.11R                  
QUERETARO      CLOUDY    82  21  10 SW12G23   30.07R                  
S. LUIS POTOSI CLOUDY    82  -6   3 W15G26    29.97R                  
TAMPICO        PTSUNNY   82  73  74 S12       29.53S                  
TOLUCA         PTSUNNY   75  23  14 W15       30.24R                  

SOUTHERN MEXICO
  
CITY           SKY/WX    TMP DP  RH WIND       PRES   REMARKS
ACAPULCO       MOSUNNY   82  73  74 W14       29.76R                  
B. DE HUATULCO PTCLDY    82  72  69 SW12      29.81R                  
OAXACA         CLOUDY    86  39  19 S16       29.97R                  
P. ESCONDIDO   PTCLDY    82  75  78 W10       29.87R                  
VERACRUZ       MOCLDY    86  75  70 E8        29.55S HX  95           
ZIHUATANEJO    PTSUNNY   82  70  65 W6        29.79S                  

YUCATAN PENINSULA
  
CITY           SKY/WX    TMP DP  RH WIND       PRES   REMARKS
CAMPECHE       PTCLDY   100  66  32 E17       29.62S HX 104           
CANCUN         PTCLDY    82  75  78 E13       29.84S                  
CHETUMAL       MOCLDY    86  73  66 E12       29.78R HX  93           
CD. DEL CARMEN MOCLDY    90  79  70 NE8       29.62S HX 105           
COZUMEL        MOCLDY    79  73  83 E16       29.83S                  
MERIDA         CLOUDY    97  64  34 SE23      29.69R HX  99           
MINATITLAN     PTCLDY    97  68  38 S12       29.54R HX 101           
TAPACHULA      MOCLDY    86  77  74 CALM      29.75R HX  97           
TUX. GUTIERREZ PTCLDY    93  54  26 SE7       29.75R HX  91           
VILLAHERMOSA   MOCLDY    93  75  55 E14       29.63S HX 104           

CENTRAL AMERICA
  
CITY           SKY/WX    TMP DP  RH WIND       PRES   REMARKS
BELIZE CITY    MOCLDY    84  79  84 E9        29.78R HX  96           
MANAGUA        PTCLDY    90  77  66 NW9       29.71R HX 102           

CARIBBEAN
  
CITY           SKY/WX    TMP DP  RH WIND       PRES   REMARKS
ARUBA          PTCLDY    84  77  79 NE17      29.77S HX  94           
CURACAO        PTCLDY    82  79  89 E10       29.83R HX  93           
KINGSTON       PTCLDY    86  75  70 S5        29.83S HX  95           
NASSAU         PTCLDY    75  66  73 NE8       29.98R                  
SAN JUAN       MOCLDY    79  72  78 CALM      29.91R                  
SANTO DOMINGO  TSTM      75  73  94 NE5       29.89R                  
ST. CROIX      PTCLDY    82  75  78 SE10      29.92                   
ST. KITTS      PTCLDY    81  75  83 E10       29.94S                  
ST. MAARTEN    PTCLDY    82  75  78 SE9       29.94S                  
ST. THOMAS     PTCLDY    82  77  83 SE9       29.93  HX  91           

$$

  

Return to Home page


Western Regional Climate Center, wrcc@dri.edu